CW8690 Weather Reports


Display with metric or nautical units.
time (UTC)temp
F
wind
direction
speed
MPH
gust
MPH
rain 1hr
in
rain 24hr
in
rain mn
in
humidity
%
barometer
mb
20260904111128 79 124 0.0 0.0 0.00 0.00 0.00 94 1009.7
20260904104124 80 125 0.0 0.0 0.00 0.00 0.00 94 1009.6
20260904102646 80 124 0.0 1.0 0.00 0.00 0.00 93 1009.7
20260904101125 80 124 1.0 4.0 0.00 0.00 0.00 93 1009.6
20260904095638 81 123 0.0 0.0 0.00 0.00 0.00 93 1009.5
20260904094138 81 123 1.0 3.0 0.00 0.00 0.00 92 1009.6
20260904092620 81 123 0.0 3.0 0.00 0.00 0.00 92 1009.7
20260904091120 82 121 1.0 4.0 0.00 0.00 0.00 92 1009.7
20260904085644 82 125 0.0 4.0 0.00 0.00 0.00 91 1009.8
20260904084120 82 137 2.0 4.0 0.00 0.00 0.00 91 1009.7
20260904082620 82 132 2.0 4.0 0.00 0.00 0.00 91 1009.8
20260904081117 82 140 1.0 5.0 0.00 0.00 0.00 90 1009.6
20260904075639 83 146 2.0 5.0 0.00 0.00 0.00 89 1009.8
20260904074132 83 161 3.0 7.0 0.00 0.00 0.00 89 1009.8
20260904072626 83 139 5.0 8.0 0.00 0.00 0.00 89 1010.0
20260904071125 83 119 5.0 8.0 0.00 0.00 0.00 89 1010.0
20260904065625 83 171 3.0 8.0 0.00 0.00 0.00 89 1010.2
20260904064124 84 130 6.0 10.0 0.00 0.00 0.00 89 1010.2
20260904062625 84 109 5.0 9.0 0.00 0.00 0.00 89 1010.4
20260904061144 84 113 4.0 8.0 0.00 0.00 0.00 89 1010.4
20260904055625 84 145 4.0 9.0 0.00 0.00 0.00 89 1010.4
20260904054122 84 128 4.0 9.0 0.00 0.00 0.00 89 1010.5
20260904052623 84 128 5.0 11.0 0.00 0.00 0.00 89 1010.5
20260904051122 84 165 4.0 8.0 0.00 0.00 0.00 89 1010.6
20260904045617 84 155 4.0 11.0 0.00 0.00 0.00 88 1010.5
20260904044117 84 155 5.0 9.0 0.00 0.00 0.00 88 1010.4
20260904042641 84 139 5.0 9.0 0.00 0.00 0.00 88 1010.6
20260904041119 84 117 5.0 11.0 0.00 0.00 0.00 88 1010.4
20260904035622 84 127 6.0 12.0 0.00 0.00 0.00 88 1010.6
20260904034121 84 123 7.0 13.0 0.00 0.00 0.00 88 1010.3
20260904032623 85 126 6.0 12.0 0.00 0.00 0.00 88 1010.2
20260904031124 85 119 5.0 12.0 0.00 0.00 0.00 88 1010.3
20260904025705 85 112 7.0 12.0 0.00 0.00 0.00 88 1010.0
20260904024137 85 67 5.0 14.0 0.00 0.00 0.00 87 1009.7
20260904022631 85 94 5.0 12.0 0.00 0.00 0.00 86 1009.7
20260904021124 85 81 6.0 15.0 0.00 0.00 0.00 86 1009.8
20260904015625 85 133 8.0 15.0 0.00 0.00 0.00 85 1009.5
20260904014143 86 96 8.0 18.0 0.00 0.00 0.00 85 1009.3
20260904012636 86 76 9.0 16.0 0.00 0.00 0.00 84 1008.8
20260904011142 86 127 10.0 19.0 0.00 0.00 0.00 84 1009.0
20260904005625 87 139 10.0 18.0 0.00 0.00 0.00 83 1009.0
20260904004122 87 112 11.0 19.0 0.00 0.00 0.00 82 1008.8
20260904002625 88 115 10.0 20.0 0.00 0.00 0.00 80 1008.9
20260904001125 88 124 8.0 19.0 0.00 0.00 0.00 78 1008.9
20260903235624 89 61 7.0 16.0 0.00 0.00 0.00 77 1008.7
20260903234139 90 88 11.0 19.0 0.00 0.00 0.00 76 1008.6
20260903232643 90 118 8.0 16.0 0.00 0.00 0.00 73 1008.5
20260903231136 91 93 10.0 19.0 0.00 0.00 0.00 73 1008.3
20260903225631 91 131 7.0 20.0 0.00 0.00 0.00 73 1008.1
20260903224123 92 89 13.0 20.0 0.00 0.00 0.00 72 1007.8
20260903222624 92 90 9.0 20.0 0.00 0.00 0.00 70 1007.9
20260903221124 93 148 9.0 17.0 0.00 0.00 0.00 69 1007.8
20260903215627 93 74 7.0 22.0 0.00 0.00 0.00 70 1007.9
20260903214131 94 146 8.0 20.0 0.00 0.00 0.00 69 1007.8
20260903212638 94 123 9.0 17.0 0.00 0.00 0.00 67 1007.8
20260903211127 95 147 9.0 19.0 0.00 0.00 0.00 67 1007.8
20260903205647 95 158 9.0 18.0 0.00 0.00 0.00 65 1007.8
20260903204125 95 119 12.0 21.0 0.00 0.00 0.00 65 1007.9
20260903202626 96 136 10.0 16.0 0.00 0.00 0.00 63 1008.1
20260903201123 96 140 11.0 20.0 0.00 0.00 0.00 64 1007.9
20260903195622 97 126 10.0 19.0 0.00 0.00 0.00 63 1008.0
20260903194119 98 150 9.0 17.0 0.00 0.00 0.00 60 1008.1
20260903192638 97 163 6.0 13.0 0.00 0.00 0.00 62 1008.4
20260903191125 98 112 7.0 17.0 0.00 0.00 0.00 61 1008.6
20260903185642 98 164 6.0 12.0 0.00 0.00 0.00 60 1008.7
20260903184133 98 109 10.0 14.0 0.00 0.00 0.00 59 1009.0
20260903182626 98 250 5.0 14.0 0.00 0.00 0.00 58 1009.3
20260903181120 97 161 4.0 11.0 0.00 0.00 0.00 58 1009.2
20260903175621 97 128 6.0 15.0 0.00 0.00 0.00 60 1009.6
20260903174118 96 174 6.0 12.0 0.00 0.00 0.00 61 1009.9
20260903172640 95 123 5.0 13.0 0.00 0.00 0.00 64 1010.2
20260903171134 96 148 8.0 15.0 0.00 0.00 0.00 63 1010.5
20260903165624 95 200 6.0 14.0 0.00 0.00 0.00 63 1010.6
20260903164123 94 185 6.0 10.0 0.00 0.00 0.00 67 1010.8
20260903162623 93 165 6.0 16.0 0.00 0.00 0.00 68 1011.0
20260903161122 93 162 8.0 15.0 0.00 0.00 0.00 69 1010.8
20260903155644 92 150 8.0 15.0 0.00 0.00 0.00 69 1011.0
20260903154135 92 96 8.0 16.0 0.00 0.00 0.00 70 1011.0
20260903152621 91 152 9.0 16.0 0.00 0.00 0.00 73 1011.1
20260903151119 90 143 8.0 13.0 0.00 0.00 0.00 75 1011.1
20260903145637 89 140 8.0 14.0 0.00 0.00 0.00 77 1011.1
20260903144135 88 127 7.0 14.0 0.00 0.00 0.00 80 1011.2
20260903142634 87 138 6.0 10.0 0.00 0.00 0.00 83 1011.2
20260903141133 86 155 7.0 10.0 0.00 0.00 0.00 84 1011.2
20260903135657 86 99 4.0 10.0 0.00 0.00 0.00 87 1011.3
20260903134126 84 166 5.0 9.0 0.00 0.00 0.00 89 1011.2
20260903132626 83 138 4.0 7.0 0.00 0.00 0.00 90 1011.2
20260903131138 83 142 2.0 8.0 0.00 0.00 0.00 91 1011.1
20260903125626 82 134 3.0 7.0 0.00 0.00 0.00 92 1011.1
20260903124202 82 116 2.0 6.0 0.00 0.00 0.00 93 1011.1
20260903122622 82 140 2.0 4.0 0.00 0.00 0.00 93 1011.0
20260903121118 82 153 3.0 6.0 0.00 0.00 0.00 93 1010.8
20260903115633 82 171 2.0 7.0 0.00 0.00 0.00 93 1010.8
20260903114121 82 158 3.0 6.0 0.00 0.00 0.00 93 1010.7
20260903112633 82 130 4.0 6.0 0.00 0.00 0.00 93 1010.8